| time (UTC) | temp C | wind direction | speed KPH | gust KPH | rain 1hr cm | rain 24hr cm | rain mn cm | humidity % | barometer mb |
| 20260507051007 | 11 | 179 | 0.0 | 6.4 | 0.00 | 0.81 | 0.00 | 88 | 1007.7 |
| 20260507050507 | 12 | 224 | 0.0 | 0.0 | 0.00 | 0.81 | 0.00 | 89 | 1007.8 |
| 20260507050033 | 12 | 210 | 0.0 | 6.4 | 0.00 | 0.81 | 0.00 | 88 | 1007.8 |
| 20260507045509 | 12 | 183 | 0.0 | 6.4 | 0.00 | 0.81 | 0.00 | 89 | 1007.7 |
| 20260507045008 | 12 | 238 | 0.0 | 4.8 | 0.00 | 0.81 | 0.00 | 90 | 1007.6 |
| 20260507044522 | 12 | 1 | 0.0 | 4.8 | 0.00 | 0.81 | 0.00 | 90 | 1007.3 |
| 20260507044009 | 12 | 1 | 0.0 | 3.2 | 0.00 | 0.81 | 0.00 | 89 | 1007.2 |
| 20260507043504 | 12 | 340 | 0.0 | 6.4 | 0.00 | 0.81 | 0.00 | 89 | 1007.5 |
| 20260507043004 | 12 | 335 | 0.0 | 8.0 | 0.00 | 0.81 | 0.00 | 88 | 1007.6 |
| 20260507042505 | 12 | 311 | 0.0 | 8.0 | 0.00 | 0.81 | 0.00 | 89 | 1007.5 |
| 20260507042004 | 13 | 359 | 1.6 | 8.0 | 0.00 | 0.81 | 0.00 | 90 | 1007.4 |
| 20260507041520 | 13 | 333 | 0.0 | 6.4 | 0.00 | 0.81 | 0.00 | 92 | 1007.6 |
| 20260507041005 | 13 | 345 | 0.0 | 0.0 | 0.00 | 0.81 | 0.00 | 92 | 1007.6 |
| 20260507040504 | 13 | 238 | 0.0 | 0.0 | 0.00 | 0.81 | 0.00 | 92 | 1007.6 |
| 20260507040014 | 13 | 238 | 0.0 | 0.0 | 0.00 | 0.81 | 0.00 | 91 | 1007.6 |
| 20260507035504 | 13 | 238 | 0.0 | 0.0 | 0.00 | 0.81 | 0.81 | 91 | 1007.4 |
| 20260507035004 | 13 | 238 | 0.0 | 0.0 | 0.00 | 0.81 | 0.81 | 91 | 1007.4 |
| 20260507034516 | 13 | 142 | 0.0 | 0.0 | 0.00 | 0.81 | 0.81 | 90 | 1007.2 |
| 20260507034006 | 13 | 278 | 0.0 | 0.0 | 0.00 | 0.81 | 0.81 | 90 | 1007.1 |
| 20260507033507 | 13 | 210 | 0.0 | 3.2 | 0.00 | 0.81 | 0.81 | 90 | 1007.0 |
| 20260507033021 | 13 | 27 | 0.0 | 3.2 | 0.00 | 0.81 | 0.81 | 89 | 1007.0 |
| 20260507032507 | 14 | 185 | 0.0 | 0.0 | 0.00 | 0.81 | 0.81 | 89 | 1006.9 |
| 20260507032003 | 14 | 271 | 0.0 | 3.2 | 0.00 | 0.81 | 0.81 | 90 | 1006.7 |
| 20260507031509 | 14 | 268 | 0.0 | 4.8 | 0.00 | 0.81 | 0.81 | 91 | 1006.5 |
| 20260507031004 | 14 | 314 | 0.0 | 9.7 | 0.00 | 0.81 | 0.81 | 91 | 1006.5 |
| 20260507030507 | 15 | 353 | 0.0 | 12.9 | 0.00 | 0.81 | 0.81 | 92 | 1006.3 |
| 20260507030018 | 15 | 359 | 1.6 | 12.9 | 0.00 | 0.81 | 0.81 | 93 | 1006.4 |
| 20260507025505 | 15 | 335 | 0.0 | 8.0 | 0.00 | 0.81 | 0.81 | 94 | 1006.5 |
| 20260507025004 | 15 | 290 | 0.0 | 4.8 | 0.00 | 0.81 | 0.81 | 95 | 1006.4 |
| 20260507024522 | 15 | 175 | 0.0 | 0.0 | 0.00 | 0.81 | 0.81 | 95 | 1006.5 |
| 20260507024004 | 15 | 212 | 0.0 | 0.0 | 0.00 | 0.81 | 0.81 | 95 | 1006.3 |
| 20260507023505 | 15 | 179 | 0.0 | 0.0 | 0.00 | 0.81 | 0.81 | 95 | 1006.3 |
| 20260507023017 | 15 | 179 | 0.0 | 0.0 | 0.00 | 0.81 | 0.81 | 95 | 1006.3 |
| 20260507022509 | 15 | 179 | 0.0 | 0.0 | 0.00 | 0.81 | 0.81 | 94 | 1006.4 |
| 20260507022007 | 15 | 179 | 0.0 | 0.0 | 0.00 | 0.81 | 0.81 | 94 | 1006.3 |
| 20260507021522 | 15 | 202 | 0.0 | 0.0 | 0.00 | 0.81 | 0.81 | 94 | 1006.1 |
| 20260507021007 | 15 | 200 | 0.0 | 0.0 | 0.00 | 0.81 | 0.81 | 94 | 1006.0 |
| 20260507020507 | 15 | 204 | 0.0 | 1.6 | 0.00 | 0.81 | 0.81 | 94 | 1005.8 |
| 20260507020007 | 15 | 167 | 0.0 | 8.0 | 0.00 | 0.81 | 0.81 | 94 | 1005.8 |
| 20260507015508 | 15 | 178 | 0.0 | 8.0 | 0.00 | 0.81 | 0.81 | 94 | 1006.0 |
| 20260507015004 | 15 | 191 | 0.0 | 8.0 | 0.00 | 0.81 | 0.81 | 94 | 1006.0 |
| 20260507014514 | 15 | 193 | 0.0 | 6.4 | 0.00 | 0.81 | 0.81 | 94 | 1006.0 |
| 20260507014008 | 15 | 195 | 0.0 | 8.0 | 0.00 | 0.81 | 0.81 | 94 | 1006.0 |
| 20260507013504 | 15 | 179 | 0.0 | 9.7 | 0.00 | 0.81 | 0.81 | 94 | 1006.0 |
| 20260507013016 | 15 | 143 | 0.0 | 9.7 | 0.00 | 0.81 | 0.81 | 94 | 1006.0 |
| 20260507012506 | 15 | 175 | 1.6 | 9.7 | 0.00 | 0.81 | 0.81 | 94 | 1006.0 |
| 20260507012009 | 15 | 210 | 0.0 | 1.6 | 0.00 | 0.81 | 0.81 | 94 | 1006.0 |
| 20260507011524 | 15 | 169 | 0.0 | 0.0 | 0.00 | 0.81 | 0.81 | 94 | 1006.1 |
| 20260507011006 | 15 | 201 | 0.0 | 8.0 | 0.00 | 0.81 | 0.81 | 94 | 1006.1 |
| 20260507010507 | 15 | 202 | 1.6 | 9.7 | 0.00 | 0.81 | 0.81 | 94 | 1006.1 |
| 20260507010030 | 15 | 205 | 1.6 | 9.7 | 0.00 | 0.81 | 0.81 | 94 | 1006.1 |
| 20260507005508 | 15 | 149 | 0.0 | 6.4 | 0.00 | 0.81 | 0.81 | 94 | 1006.1 |
| 20260507005009 | 15 | 215 | 0.0 | 6.4 | 0.00 | 0.81 | 0.81 | 94 | 1006.2 |
| 20260507004529 | 15 | 180 | 0.0 | 6.4 | 0.00 | 0.81 | 0.81 | 94 | 1006.0 |
| 20260507004005 | 15 | 150 | 0.0 | 9.7 | 0.00 | 0.81 | 0.81 | 94 | 1006.0 |
| 20260507003506 | 15 | 183 | 0.0 | 9.7 | 0.03 | 0.81 | 0.81 | 94 | 1006.0 |
| 20260507003014 | 15 | 176 | 0.0 | 4.8 | 0.03 | 0.81 | 0.81 | 94 | 1005.9 |
| 20260507002505 | 15 | 212 | 0.0 | 4.8 | 0.03 | 0.81 | 0.81 | 94 | 1005.8 |
| 20260507002006 | 15 | 198 | 0.0 | 16.1 | 0.03 | 0.81 | 0.81 | 94 | 1005.7 |
| 20260507001518 | 15 | 205 | 0.0 | 16.1 | 0.03 | 0.81 | 0.81 | 94 | 1005.8 |
| 20260507001007 | 15 | 202 | 1.6 | 16.1 | 0.03 | 0.81 | 0.81 | 94 | 1005.9 |
| 20260507000506 | 15 | 204 | 0.0 | 12.9 | 0.03 | 0.81 | 0.81 | 94 | 1006.0 |
| 20260507000024 | 15 | 190 | 1.6 | 12.9 | 0.08 | 0.81 | 0.81 | 94 | 1005.8 |
| 20260506235506 | 15 | 188 | 0.0 | 9.7 | 0.10 | 0.81 | 0.81 | 94 | 1005.6 |
| 20260506235006 | 15 | 201 | 0.0 | 12.9 | 0.13 | 0.81 | 0.81 | 94 | 1005.6 |
| 20260506234530 | 15 | 169 | 1.6 | 12.9 | 0.13 | 0.81 | 0.81 | 95 | 1005.5 |
| 20260506234004 | 15 | 167 | 0.0 | 12.9 | 0.15 | 0.81 | 0.81 | 94 | 1005.5 |
| 20260506233507 | 15 | 145 | 1.6 | 17.7 | 0.15 | 0.79 | 0.79 | 94 | 1005.5 |
| 20260506233012 | 15 | 172 | 3.2 | 17.7 | 0.15 | 0.79 | 0.79 | 94 | 1005.5 |
| 20260506232504 | 15 | 200 | 1.6 | 9.7 | 0.15 | 0.79 | 0.79 | 94 | 1005.5 |
| 20260506232007 | 15 | 245 | 0.0 | 12.9 | 0.15 | 0.79 | 0.79 | 94 | 1005.6 |
| 20260506231516 | 15 | 193 | 1.6 | 12.9 | 0.15 | 0.79 | 0.79 | 94 | 1005.5 |
| 20260506231012 | 15 | 163 | 0.0 | 9.7 | 0.18 | 0.79 | 0.79 | 94 | 1005.5 |
| 20260506230501 | 15 | 125 | 0.0 | 9.7 | 0.18 | 0.79 | 0.79 | 94 | 1005.6 |
| 20260506230012 | 15 | 116 | 0.0 | 6.4 | 0.13 | 0.74 | 0.74 | 94 | 1005.7 |
| 20260506225503 | 15 | 159 | 0.0 | 11.3 | 0.10 | 0.71 | 0.71 | 94 | 1005.8 |
| 20260506225003 | 15 | 116 | 0.0 | 11.3 | 0.10 | 0.69 | 0.69 | 94 | 1006.0 |
| 20260506224508 | 15 | 126 | 1.6 | 11.3 | 0.10 | 0.69 | 0.69 | 94 | 1006.0 |
| 20260506224004 | 15 | 199 | 0.0 | 11.3 | 0.10 | 0.66 | 0.66 | 93 | 1006.0 |
| 20260506223504 | 15 | 186 | 1.6 | 11.3 | 0.10 | 0.64 | 0.64 | 93 | 1006.0 |
| 20260506223006 | 15 | 165 | 0.0 | 12.9 | 0.10 | 0.64 | 0.64 | 93 | 1006.0 |
| 20260506222504 | 15 | 189 | 3.2 | 14.5 | 0.10 | 0.64 | 0.64 | 93 | 1005.9 |
| 20260506222006 | 15 | 193 | 0.0 | 14.5 | 0.13 | 0.64 | 0.64 | 93 | 1005.9 |
| 20260506221514 | 15 | 172 | 1.6 | 14.5 | 0.13 | 0.64 | 0.64 | 93 | 1006.0 |
| 20260506221003 | 15 | 198 | 1.6 | 14.5 | 0.10 | 0.61 | 0.61 | 93 | 1006.1 |
| 20260506220503 | 15 | 159 | 1.6 | 12.9 | 0.10 | 0.61 | 0.61 | 93 | 1006.1 |
| 20260506220017 | 15 | 157 | 0.0 | 11.3 | 0.13 | 0.61 | 0.61 | 93 | 1006.1 |
| 20260506215505 | 15 | 199 | 0.0 | 11.3 | 0.18 | 0.61 | 0.61 | 93 | 1006.1 |
| 20260506215003 | 15 | 221 | 3.2 | 12.9 | 0.18 | 0.58 | 0.58 | 93 | 1006.1 |
| 20260506214504 | 15 | 171 | 1.6 | 12.9 | 0.20 | 0.58 | 0.58 | 92 | 1006.2 |
| 20260506214004 | 16 | 210 | 1.6 | 16.1 | 0.20 | 0.56 | 0.56 | 92 | 1006.2 |
| 20260506213503 | 16 | 124 | 6.4 | 16.1 | 0.20 | 0.53 | 0.53 | 92 | 1006.1 |
| 20260506213006 | 16 | 157 | 4.8 | 14.5 | 0.23 | 0.53 | 0.53 | 92 | 1006.1 |
| 20260506212503 | 16 | 179 | 0.0 | 11.3 | 0.25 | 0.53 | 0.53 | 93 | 1006.1 |
| 20260506212003 | 16 | 157 | 1.6 | 20.9 | 0.23 | 0.51 | 0.51 | 92 | 1006.2 |
| 20260506211508 | 16 | 193 | 1.6 | 20.9 | 0.25 | 0.51 | 0.51 | 92 | 1006.3 |
| 20260506211003 | 16 | 210 | 1.6 | 14.5 | 0.28 | 0.51 | 0.51 | 92 | 1006.4 |
| 20260506210504 | 16 | 150 | 1.6 | 17.7 | 0.28 | 0.51 | 0.51 | 92 | 1006.5 |
| 20260506210014 | 16 | 200 | 0.0 | 17.7 | 0.28 | 0.48 | 0.48 | 92 | 1006.6 |
| 20260506205504 | 16 | 158 | 3.2 | 17.7 | 0.23 | 0.43 | 0.43 | 92 | 1006.6 |
| 20260506205004 | 16 | 179 | 0.0 | 14.5 | 0.20 | 0.41 | 0.41 | 91 | 1006.8 |
| 20260506204518 | 16 | 165 | 1.6 | 14.5 | 0.18 | 0.38 | 0.38 | 91 | 1006.7 |
| 20260506204008 | 16 | 212 | 1.6 | 12.9 | 0.15 | 0.36 | 0.36 | 91 | 1006.9 |
| 20260506203508 | 16 | 159 | 3.2 | 14.5 | 0.13 | 0.33 | 0.33 | 90 | 1006.8 |
| 20260506203004 | 16 | 172 | 3.2 | 14.5 | 0.10 | 0.30 | 0.30 | 90 | 1006.7 |
| 20260506202504 | 16 | 221 | 0.0 | 11.3 | 0.08 | 0.28 | 0.28 | 90 | 1006.7 |
| 20260506202004 | 17 | 134 | 1.6 | 14.5 | 0.08 | 0.28 | 0.28 | 89 | 1006.7 |
| 20260506201525 | 17 | 204 | 0.0 | 14.5 | 0.05 | 0.25 | 0.25 | 89 | 1006.7 |
| 20260506201004 | 17 | 201 | 0.0 | 12.9 | 0.05 | 0.23 | 0.23 | 89 | 1006.9 |
| 20260506200504 | 17 | 193 | 4.8 | 16.1 | 0.05 | 0.23 | 0.23 | 88 | 1006.9 |
| 20260506200009 | 17 | 120 | 1.6 | 16.1 | 0.03 | 0.20 | 0.20 | 88 | 1006.8 |
| 20260506195504 | 17 | 199 | 0.0 | 12.9 | 0.05 | 0.20 | 0.20 | 88 | 1006.9 |
| 20260506195007 | 17 | 191 | 0.0 | 12.9 | 0.05 | 0.20 | 0.20 | 88 | 1006.9 |
| 20260506194514 | 17 | 183 | 1.6 | 12.9 | 0.08 | 0.20 | 0.20 | 88 | 1006.9 |
| 20260506194009 | 17 | 180 | 3.2 | 12.9 | 0.10 | 0.20 | 0.20 | 88 | 1006.9 |
| 20260506193508 | 17 | 213 | 3.2 | 12.9 | 0.13 | 0.20 | 0.20 | 88 | 1006.8 |
| 20260506193025 | 17 | 128 | 1.6 | 8.0 | 0.13 | 0.20 | 0.20 | 89 | 1006.8 |
| 20260506192508 | 17 | 193 | 0.0 | 8.0 | 0.15 | 0.20 | 0.20 | 90 | 1006.8 |
| 20260506192010 | 17 | 148 | 0.0 | 4.8 | 0.15 | 0.20 | 0.20 | 90 | 1006.8 |
| 20260506191506 | 17 | 123 | 0.0 | 3.2 | 0.18 | 0.20 | 0.20 | 90 | 1006.9 |
| 20260506191004 | 17 | 190 | 0.0 | 3.2 | 0.15 | 0.18 | 0.18 | 89 | 1006.8 |
| 20260506190505 | 17 | 149 | 0.0 | 0.0 | 0.15 | 0.18 | 0.18 | 88 | 1006.7 |
| 20260506190012 | 17 | 164 | 0.0 | 0.0 | 0.18 | 0.18 | 0.18 | 88 | 1006.8 |
| 20260506185504 | 18 | 195 | 0.0 | 9.7 | 0.15 | 0.15 | 0.15 | 86 | 1007.0 |
| 20260506185004 | 18 | 198 | 0.0 | 9.7 | 0.15 | 0.15 | 0.15 | 85 | 1007.0 |
| 20260506184527 | 18 | 184 | 1.6 | 9.7 | 0.13 | 0.13 | 0.13 | 84 | 1007.0 |
| 20260506184005 | 18 | 161 | 0.0 | 6.4 | 0.10 | 0.10 | 0.10 | 83 | 1007.2 |
| 20260506183504 | 18 | 187 | 0.0 | 4.8 | 0.08 | 0.08 | 0.08 | 82 | 1007.0 |
| 20260506183018 | 19 | 210 | 0.0 | 8.0 | 0.08 | 0.08 | 0.08 | 80 | 1007.3 |
| 20260506182504 | 19 | 147 | 0.0 | 8.0 | 0.05 | 0.05 | 0.05 | 79 | 1007.3 |
| 20260506182009 | 20 | 203 | 0.0 | 9.7 | 0.05 | 0.05 | 0.05 | 76 | 1007.4 |
| 20260506181524 | 20 | 229 | 1.6 | 9.7 | 0.03 | 0.03 | 0.03 | 74 | 1007.5 |
| 20260506181009 | 20 | 36 | 0.0 | 3.2 | 0.03 | 0.03 | 0.03 | 73 | 1007.4 |
| 20260506180508 | 21 | 266 | 0.0 | 9.7 | 0.03 | 0.03 | 0.03 | 70 | 1007.5 |
| 20260506180031 | 21 | 237 | 0.0 | 9.7 | 0.00 | 0.00 | 0.00 | 68 | 1007.3 |
| 20260506175502 | 21 | 132 | 0.0 | 11.3 | 0.00 | 0.00 | 0.00 | 67 | 1007.3 |
| 20260506175003 | 21 | 181 | 1.6 | 11.3 | 0.00 | 0.00 | 0.00 | 66 | 1007.3 |
| 20260506174522 | 21 | 200 | 1.6 | 12.9 | 0.00 | 0.00 | 0.00 | 65 | 1007.3 |
| 20260506174003 | 22 | 209 | 3.2 | 17.7 | 0.00 | 0.00 | 0.00 | 63 | 1007.3 |
| 20260506173504 | 22 | 189 | 6.4 | 19.3 | 0.00 | 0.00 | 0.00 | 61 | 1007.3 |
| 20260506173016 | 22 | 175 | 1.6 | 25.7 | 0.00 | 0.00 | 0.00 | 58 | 1007.1 |
| 20260506172504 | 22 | 197 | 6.4 | 25.7 | 0.00 | 0.00 | 0.00 | 56 | 1007.0 |
| 20260506172004 | 23 | 135 | 3.2 | 16.1 | 0.00 | 0.00 | 0.00 | 56 | 1007.0 |
| 20260506171534 | 23 | 203 | 0.0 | 14.5 | 0.00 | 0.00 | 0.00 | 56 | 1007.0 |
| 20260506171005 | 23 | 176 | 0.0 | 16.1 | 0.00 | 0.00 | 0.00 | 57 | 1007.0 |
| 20260506170511 | 23 | 198 | 4.8 | 22.5 | 0.00 | 0.00 | 0.00 | 56 | 1007.1 |
| 20260506170025 | 23 | 210 | 3.2 | 22.5 | 0.00 | 0.00 | 0.00 | 56 | 1007.3 |
| 20260506165509 | 23 | 111 | 3.2 | 22.5 | 0.00 | 0.00 | 0.00 | 58 | 1007.3 |
| 20260506165009 | 22 | 113 | 1.6 | 22.5 | 0.00 | 0.00 | 0.00 | 59 | 1007.4 |
| 20260506164526 | 22 | 196 | 4.8 | 24.1 | 0.00 | 0.00 | 0.00 | 58 | 1007.4 |
| 20260506164005 | 22 | 172 | 6.4 | 24.1 | 0.00 | 0.00 | 0.00 | 59 | 1007.5 |
| 20260506163508 | 22 | 193 | 4.8 | 24.1 | 0.00 | 0.00 | 0.00 | 60 | 1007.5 |
| 20260506163014 | 22 | 156 | 9.7 | 19.3 | 0.00 | 0.00 | 0.00 | 60 | 1007.6 |
| 20260506162503 | 22 | 159 | 4.8 | 19.3 | 0.00 | 0.00 | 0.00 | 61 | 1007.9 |
| 20260506162007 | 22 | 177 | 6.4 | 19.3 | 0.00 | 0.00 | 0.00 | 61 | 1007.8 |
| 20260506161518 | 22 | 183 | 1.6 | 11.3 | 0.00 | 0.00 | 0.00 | 63 | 1007.9 |
| 20260506161007 | 21 | 271 | 1.6 | 9.7 | 0.00 | 0.00 | 0.00 | 64 | 1007.9 |
| 20260506160507 | 21 | 211 | 1.6 | 9.7 | 0.00 | 0.00 | 0.00 | 63 | 1008.0 |
| 20260506160022 | 21 | 176 | 3.2 | 9.7 | 0.00 | 0.00 | 0.00 | 63 | 1008.2 |
| 20260506155508 | 21 | 203 | 3.2 | 14.5 | 0.00 | 0.00 | 0.00 | 63 | 1008.2 |
| 20260506155007 | 21 | 169 | 1.6 | 14.5 | 0.00 | 0.00 | 0.00 | 64 | 1008.4 |
| 20260506154529 | 21 | 163 | 4.8 | 19.3 | 0.00 | 0.00 | 0.00 | 64 | 1008.5 |
| 20260506154009 | 21 | 157 | 1.6 | 19.3 | 0.00 | 0.00 | 0.00 | 64 | 1008.6 |
| 20260506153510 | 21 | 188 | 3.2 | 19.3 | 0.00 | 0.00 | 0.00 | 64 | 1008.7 |
| 20260506153027 | 21 | 145 | 3.2 | 17.7 | 0.00 | 0.00 | 0.00 | 64 | 1008.7 |
| 20260506152513 | 21 | 210 | 3.2 | 17.7 | 0.00 | 0.00 | 0.00 | 64 | 1008.9 |
| 20260506152004 | 21 | 172 | 8.0 | 17.7 | 0.00 | 0.00 | 0.00 | 64 | 1009.0 |
| 20260506151522 | 21 | 189 | 1.6 | 14.5 | 0.00 | 0.00 | 0.00 | 64 | 1009.0 |
| 20260506151004 | 21 | 231 | 1.6 | 14.5 | 0.00 | 0.00 | 0.00 | 65 | 1009.0 |
| 20260506150510 | 21 | 184 | 3.2 | 22.5 | 0.00 | 0.00 | 0.00 | 65 | 1009.1 |
| 20260506150022 | 21 | 178 | 6.4 | 22.5 | 0.00 | 0.00 | 0.00 | 64 | 1008.9 |
| 20260506145506 | 21 | 169 | 1.6 | 20.9 | 0.00 | 0.00 | 0.00 | 65 | 1008.9 |
| 20260506145007 | 21 | 184 | 4.8 | 16.1 | 0.00 | 0.00 | 0.00 | 66 | 1009.0 |
| 20260506144525 | 21 | 69 | 1.6 | 20.9 | 0.00 | 0.00 | 0.00 | 66 | 1009.1 |
| 20260506144009 | 21 | 96 | 4.8 | 20.9 | 0.00 | 0.00 | 0.00 | 66 | 1009.1 |
| 20260506143504 | 21 | 194 | 8.0 | 17.7 | 0.00 | 0.00 | 0.00 | 66 | 1009.0 |
| 20260506143008 | 20 | 136 | 4.8 | 16.1 | 0.00 | 0.00 | 0.00 | 67 | 1009.0 |
| 20260506142507 | 20 | 167 | 4.8 | 16.1 | 0.00 | 0.00 | 0.00 | 67 | 1008.9 |
| 20260506142005 | 20 | 167 | 1.6 | 20.9 | 0.00 | 0.00 | 0.00 | 67 | 1009.0 |
| 20260506141512 | 20 | 153 | 4.8 | 24.1 | 0.00 | 0.00 | 0.00 | 67 | 1009.0 |
| 20260506141004 | 20 | 191 | 3.2 | 24.1 | 0.00 | 0.00 | 0.00 | 68 | 1008.7 |
| 20260506140504 | 20 | 111 | 3.2 | 20.9 | 0.00 | 0.00 | 0.00 | 69 | 1008.7 |
| 20260506140021 | 20 | 160 | 3.2 | 24.1 | 0.00 | 0.00 | 0.00 | 70 | 1008.7 |
| 20260506135506 | 20 | 200 | 1.6 | 24.1 | 0.00 | 0.00 | 0.00 | 70 | 1008.8 |
| 20260506135005 | 20 | 115 | 4.8 | 24.1 | 0.00 | 0.00 | 0.00 | 71 | 1008.9 |
| 20260506134522 | 19 | 206 | 3.2 | 14.5 | 0.00 | 0.00 | 0.00 | 71 | 1008.8 |
| 20260506134007 | 19 | 196 | 3.2 | 16.1 | 0.00 | 0.00 | 0.00 | 72 | 1008.9 |
| 20260506133510 | 19 | 196 | 3.2 | 16.1 | 0.00 | 0.00 | 0.00 | 71 | 1009.0 |
| 20260506133030 | 19 | 122 | 1.6 | 22.5 | 0.00 | 0.00 | 0.00 | 72 | 1009.0 |
| 20260506132507 | 19 | 214 | 6.4 | 22.5 | 0.00 | 0.00 | 0.00 | 71 | 1009.2 |
| 20260506132011 | 19 | 184 | 1.6 | 16.1 | 0.00 | 0.00 | 0.00 | 73 | 1009.5 |
| 20260506131508 | 18 | 193 | 1.6 | 22.5 | 0.00 | 0.00 | 0.00 | 73 | 1009.5 |
| 20260506131004 | 18 | 217 | 1.6 | 22.5 | 0.00 | 0.00 | 0.00 | 73 | 1009.6 |
| 20260506130505 | 18 | 197 | 4.8 | 22.5 | 0.00 | 0.00 | 0.00 | 73 | 1009.6 |
| 20260506130018 | 18 | 166 | 1.6 | 20.9 | 0.00 | 0.00 | 0.00 | 73 | 1009.5 |
| 20260506125505 | 18 | 221 | 4.8 | 20.9 | 0.00 | 0.00 | 0.00 | 73 | 1009.5 |
| 20260506125010 | 18 | 233 | 3.2 | 20.9 | 0.00 | 0.00 | 0.00 | 73 | 1009.5 |
| 20260506124522 | 18 | 197 | 4.8 | 20.9 | 0.00 | 0.00 | 0.00 | 73 | 1009.6 |
| 20260506124005 | 18 | 206 | 3.2 | 20.9 | 0.00 | 0.00 | 0.00 | 74 | 1009.6 |
| 20260506123506 | 18 | 156 | 4.8 | 16.1 | 0.00 | 0.00 | 0.00 | 75 | 1009.4 |
| 20260506123024 | 18 | 209 | 3.2 | 14.5 | 0.00 | 0.00 | 0.00 | 76 | 1009.2 |
| 20260506122508 | 17 | 187 | 3.2 | 14.5 | 0.00 | 0.00 | 0.00 | 76 | 1009.2 |
| 20260506122014 | 17 | 155 | 1.6 | 14.5 | 0.00 | 0.00 | 0.00 | 76 | 1009.2 |
| 20260506121527 | 17 | 182 | 0.0 | 17.7 | 0.00 | 0.00 | 0.00 | 76 | 1009.4 |
| 20260506121007 | 17 | 200 | 3.2 | 17.7 | 0.00 | 0.00 | 0.00 | 76 | 1009.6 |
| 20260506120508 | 17 | 172 | 3.2 | 17.7 | 0.00 | 0.00 | 0.00 | 76 | 1009.6 |
| 20260506120010 | 17 | 163 | 3.2 | 16.1 | 0.00 | 0.00 | 0.00 | 77 | 1009.6 |
| 20260506115504 | 17 | 198 | 1.6 | 16.1 | 0.00 | 0.00 | 0.00 | 78 | 1009.4 |
| 20260506115005 | 17 | 158 | 3.2 | 14.5 | 0.00 | 0.00 | 0.00 | 78 | 1009.6 |
| 20260506114531 | 17 | 145 | 3.2 | 16.1 | 0.00 | 0.00 | 0.00 | 78 | 1009.6 |
| 20260506114006 | 16 | 119 | 1.6 | 16.1 | 0.00 | 0.00 | 0.00 | 78 | 1009.7 |
| 20260506113505 | 16 | 207 | 1.6 | 12.9 | 0.00 | 0.00 | 0.00 | 78 | 1009.8 |
| 20260506113022 | 16 | 165 | 0.0 | 20.9 | 0.00 | 0.00 | 0.00 | 78 | 1009.8 |
| 20260506112510 | 16 | 172 | 3.2 | 20.9 | 0.00 | 0.00 | 0.00 | 78 | 1009.8 |
| 20260506112007 | 16 | 181 | 0.0 | 16.1 | 0.00 | 0.00 | 0.00 | 78 | 1009.9 |
| 20260506111523 | 16 | 134 | 1.6 | 9.7 | 0.00 | 0.00 | 0.00 | 78 | 1009.9 |
| 20260506111010 | 16 | 147 | 0.0 | 14.5 | 0.00 | 0.00 | 0.00 | 78 | 1009.9 |
| 20260506110512 | 16 | 191 | 0.0 | 14.5 | 0.00 | 0.00 | 0.00 | 79 | 1009.9 |
| 20260506110032 | 16 | 202 | 1.6 | 14.5 | 0.00 | 0.00 | 0.00 | 79 | 1009.7 |
| 20260506105513 | 16 | 113 | 0.0 | 11.3 | 0.00 | 0.00 | 0.00 | 79 | 1009.7 |
| 20260506105008 | 16 | 167 | 0.0 | 9.7 | 0.00 | 0.00 | 0.00 | 79 | 1009.8 |
| 20260506104525 | 16 | 176 | 0.0 | 9.7 | 0.00 | 0.00 | 0.00 | 79 | 1010.0 |
| 20260506104005 | 16 | 165 | 0.0 | 12.9 | 0.00 | 0.00 | 0.00 | 79 | 1009.9 |
| 20260506103509 | 16 | 195 | 1.6 | 12.9 | 0.00 | 0.00 | 0.00 | 79 | 1009.9 |
| 20260506103018 | 16 | 143 | 1.6 | 16.1 | 0.00 | 0.00 | 0.00 | 79 | 1009.8 |
| 20260506102506 | 16 | 181 | 1.6 | 16.1 | 0.00 | 0.00 | 0.00 | 79 | 1009.7 |
| 20260506102007 | 16 | 153 | 1.6 | 14.5 | 0.00 | 0.00 | 0.00 | 79 | 1009.6 |
| 20260506101524 | 16 | 174 | 0.0 | 14.5 | 0.00 | 0.00 | 0.00 | 78 | 1009.5 |
| 20260506101007 | 16 | 203 | 0.0 | 11.3 | 0.00 | 0.00 | 0.00 | 78 | 1009.7 |
| 20260506100507 | 16 | 189 | 0.0 | 11.3 | 0.00 | 0.00 | 0.00 | 78 | 1009.7 |
| 20260506100026 | 16 | 203 | 0.0 | 11.3 | 0.00 | 0.00 | 0.00 | 78 | 1009.7 |
| 20260506095508 | 16 | 154 | 0.0 | 14.5 | 0.00 | 0.00 | 0.00 | 78 | 1009.7 |
| 20260506095012 | 16 | 135 | 1.6 | 14.5 | 0.00 | 0.00 | 0.00 | 78 | 1009.6 |
| 20260506094526 | 16 | 200 | 3.2 | 14.5 | 0.00 | 0.00 | 0.00 | 78 | 1009.6 |
| 20260506094008 | 16 | 131 | 0.0 | 12.9 | 0.00 | 0.00 | 0.00 | 78 | 1009.5 |
| 20260506093509 | 16 | 176 | 1.6 | 12.9 | 0.00 | 0.00 | 0.00 | 77 | 1009.5 |
| 20260506093028 | 16 | 182 | 0.0 | 9.7 | 0.00 | 0.00 | 0.00 | 77 | 1009.4 |
| 20260506092507 | 16 | 177 | 0.0 | 8.0 | 0.00 | 0.00 | 0.00 | 77 | 1009.4 |
| 20260506092006 | 16 | 170 | 0.0 | 8.0 | 0.00 | 0.00 | 0.00 | 77 | 1009.6 |
| 20260506091522 | 16 | 167 | 0.0 | 12.9 | 0.00 | 0.00 | 0.00 | 77 | 1009.6 |
| 20260506091006 | 16 | 136 | 1.6 | 12.9 | 0.00 | 0.00 | 0.00 | 77 | 1009.5 |
| 20260506090507 | 16 | 205 | 0.0 | 12.9 | 0.00 | 0.00 | 0.00 | 76 | 1009.5 |
| 20260506090025 | 16 | 200 | 0.0 | 12.9 | 0.00 | 0.00 | 0.00 | 76 | 1009.6 |
| 20260506085506 | 16 | 155 | 1.6 | 14.5 | 0.00 | 0.00 | 0.00 | 76 | 1009.5 |
| 20260506085007 | 16 | 162 | 0.0 | 14.5 | 0.00 | 0.00 | 0.00 | 76 | 1009.5 |
| 20260506084526 | 16 | 195 | 0.0 | 12.9 | 0.00 | 0.00 | 0.00 | 76 | 1009.5 |
| 20260506084005 | 16 | 167 | 1.6 | 12.9 | 0.00 | 0.00 | 0.00 | 75 | 1009.5 |
| 20260506083505 | 16 | 186 | 0.0 | 9.7 | 0.00 | 0.00 | 0.00 | 75 | 1009.6 |
| 20260506083014 | 16 | 186 | 0.0 | 8.0 | 0.00 | 0.00 | 0.00 | 75 | 1009.6 |
| 20260506082503 | 16 | 189 | 1.6 | 8.0 | 0.00 | 0.00 | 0.00 | 74 | 1009.5 |
| 20260506082006 | 16 | 120 | 0.0 | 11.3 | 0.00 | 0.00 | 0.00 | 74 | 1009.5 |
| 20260506081518 | 16 | 178 | 0.0 | 11.3 | 0.00 | 0.00 | 0.00 | 74 | 1009.5 |
| 20260506081007 | 17 | 220 | 1.6 | 9.7 | 0.00 | 0.00 | 0.00 | 74 | 1009.4 |
| 20260506080505 | 17 | 207 | 1.6 | 16.1 | 0.00 | 0.00 | 0.00 | 73 | 1009.5 |
| 20260506073504 | 17 | 197 | 1.6 | 16.1 | 0.00 | 0.00 | 0.00 | 71 | 1009.5 |
| 20260506073008 | 17 | 216 | 0.0 | 14.5 | 0.00 | 0.00 | 0.00 | 71 | 1009.4 |
| 20260506072505 | 17 | 189 | 1.6 | 17.7 | 0.00 | 0.00 | 0.00 | 71 | 1009.4 |
| 20260506072008 | 17 | 134 | 1.6 | 17.7 | 0.00 | 0.00 | 0.00 | 71 | 1009.3 |
| 20260506071515 | 17 | 181 | 1.6 | 19.3 | 0.00 | 0.00 | 0.00 | 70 | 1009.2 |
| 20260506071010 | 17 | 194 | 3.2 | 19.3 | 0.00 | 0.00 | 0.00 | 70 | 1009.2 |
| 20260506070508 | 17 | 164 | 0.0 | 11.3 | 0.00 | 0.00 | 0.00 | 70 | 1009.2 |
| 20260506062504 | 17 | 127 | 3.2 | 16.1 | 0.00 | 0.00 | 0.00 | 67 | 1009.1 |
| 20260506062007 | 17 | 207 | 1.6 | 14.5 | 0.00 | 0.00 | 0.00 | 66 | 1009.2 |
| 20260506061512 | 17 | 185 | 1.6 | 20.9 | 0.00 | 0.00 | 0.00 | 66 | 1009.1 |
| 20260506061004 | 17 | 166 | 3.2 | 20.9 | 0.00 | 0.00 | 0.00 | 66 | 1009.0 |
| 20260506060505 | 18 | 136 | 3.2 | 16.1 | 0.00 | 0.00 | 0.00 | 66 | 1009.0 |